TimeCST,TemperatureF,Dew PointF,Humidity,Sea Level PressureIn,VisibilityMPH,Wind Direction,Wind SpeedMPH,Gust SpeedMPH,PrecipitationIn,Events,Conditions,WindDirDegrees,DateUTC
12:53 AM,28.0,21.0,75,30.33,10.0,Calm,Calm,-,N/A,,Clear,0,2012-12-22 06:53:00
1:53 AM,27.0,21.0,78,30.33,10.0,Calm,Calm,-,N/A,,Clear,0,2012-12-22 07:53:00
2:53 AM,26.1,21.0,81,30.33,10.0,Calm,Calm,-,N/A,,Clear,0,2012-12-22 08:53:00
3:53 AM,26.1,21.9,84,30.32,10.0,Calm,Calm,-,N/A,,Clear,0,2012-12-22 09:53:00
4:53 AM,26.1,21.0,81,30.32,10.0,Calm,Calm,-,N/A,,Clear,0,2012-12-22 10:53:00
5:53 AM,26.1,21.0,81,30.33,10.0,Calm,Calm,-,N/A,,Clear,0,2012-12-22 11:53:00
6:53 AM,28.0,21.0,75,30.34,10.0,ENE,4.6,-,N/A,,Clear,60,2012-12-22 12:53:00
7:53 AM,30.9,23.0,72,30.33,10.0,ENE,5.8,-,N/A,,Clear,60,2012-12-22 13:53:00
8:53 AM,34.0,26.1,73,30.32,10.0,East,4.6,-,N/A,,Clear,100,2012-12-22 14:53:00
9:53 AM,39.0,23.0,53,30.32,10.0,ESE,5.8,-,N/A,,Clear,120,2012-12-22 15:53:00
10:53 AM,44.1,25.0,47,30.29,10.0,SSE,11.5,-,N/A,,Clear,160,2012-12-22 16:53:00
11:53 AM,46.9,30.0,52,30.25,10.0,SSE,8.1,-,N/A,,Clear,160,2012-12-22 17:53:00
12:53 PM,51.1,32.0,48,30.22,10.0,South,5.8,-,N/A,,Clear,170,2012-12-22 18:53:00
1:53 PM,55.9,30.0,37,30.18,10.0,SSW,9.2,-,N/A,,Clear,200,2012-12-22 19:53:00
2:53 PM,55.9,37.0,49,30.16,10.0,South,10.4,-,N/A,,Clear,170,2012-12-22 20:53:00
3:53 PM,55.9,30.0,37,30.14,10.0,SSW,12.7,-,N/A,,Clear,210,2012-12-22 21:53:00
4:53 PM,52.0,32.0,47,30.12,10.0,SSW,9.2,-,N/A,,Clear,200,2012-12-22 22:53:00
5:53 PM,48.0,30.0,50,30.12,10.0,SSW,6.9,-,N/A,,Clear,200,2012-12-22 23:53:00
6:53 PM,46.0,30.0,54,30.12,10.0,South,5.8,-,N/A,,Clear,180,2012-12-23 00:53:00
7:53 PM,42.1,30.9,65,30.12,10.0,SSW,8.1,-,N/A,,Clear,200,2012-12-23 01:53:00
8:53 PM,43.0,32.0,65,30.11,10.0,South,10.4,-,N/A,,Clear,190,2012-12-23 02:53:00
9:53 PM,45.0,32.0,60,30.09,10.0,South,9.2,-,N/A,,Clear,190,2012-12-23 03:53:00
10:53 PM,48.9,30.9,50,30.09,10.0,SSW,13.8,-,N/A,,Clear,210,2012-12-23 04:53:00
11:53 PM,46.0,32.0,58,30.06,10.0,SSW,10.4,-,N/A,,Clear,200,2012-12-23 05:53:00